| time (UTC) | temp F | wind direction | speed MPH | gust MPH | rain 1hr in | rain 24hr in | rain mn in | humidity % | barometer mb |
| 20260509101014 | 51 | 165 | 0.0 | 0.0 | 0.00 | 0.40 | 0.40 | 98 | 1003.9 |
| 20260509100512 | 51 | 165 | 0.0 | 0.0 | 0.00 | 0.40 | 0.40 | 98 | 1003.7 |
| 20260509100009 | 51 | 165 | 0.0 | 0.0 | 0.00 | 0.40 | 0.40 | 98 | 1003.9 |
| 20260509095505 | 52 | 165 | 0.0 | 0.0 | 0.00 | 0.40 | 0.40 | 97 | 1004.1 |
| 20260509095003 | 52 | 165 | 0.0 | 0.0 | 0.00 | 0.40 | 0.40 | 98 | 1004.0 |
| 20260509094459 | 52 | 165 | 0.0 | 0.0 | 0.07 | 0.40 | 0.40 | 98 | 1004.0 |
| 20260509093956 | 53 | 165 | 0.0 | 0.0 | 0.07 | 0.40 | 0.40 | 98 | 1003.9 |
| 20260509093454 | 53 | 165 | 0.0 | 0.0 | 0.00 | 0.39 | 0.39 | 98 | 1004.0 |
| 20260509092951 | 53 | 165 | 0.0 | 0.0 | 0.00 | 0.39 | 0.39 | 97 | 1003.9 |
| 20260509092449 | 53 | 165 | 0.0 | 0.0 | 0.00 | 0.39 | 0.39 | 97 | 1004.0 |
| 20260509091948 | 53 | 165 | 1.0 | 1.0 | 0.00 | 0.39 | 0.39 | 97 | 1004.0 |
| 20260509091444 | 53 | 165 | 1.0 | 1.0 | 0.00 | 0.39 | 0.39 | 97 | 1004.2 |
| 20260509090941 | 54 | 165 | 0.0 | 0.0 | 0.00 | 0.39 | 0.39 | 97 | 1004.1 |
| 20260509090439 | 54 | 278 | 1.0 | 1.0 | 0.00 | 0.39 | 0.39 | 97 | 1004.1 |
| 20260509085936 | 54 | 237 | 1.0 | 1.0 | 0.00 | 0.39 | 0.39 | 97 | 1004.1 |
| 20260509085433 | 54 | 307 | 1.0 | 1.0 | 0.00 | 0.39 | 0.39 | 97 | 1004.2 |
| 20260509084929 | 54 | 303 | 1.0 | 1.0 | 0.00 | 0.39 | 0.39 | 97 | 1004.4 |
| 20260509084426 | 54 | 280 | 2.0 | 3.0 | 0.00 | 0.39 | 0.39 | 98 | 1004.4 |
| 20260509083924 | 54 | 314 | 1.0 | 2.0 | 0.05 | 0.39 | 0.39 | 98 | 1004.5 |
| 20260509083421 | 54 | 311 | 2.0 | 2.0 | 0.05 | 0.39 | 0.39 | 98 | 1004.6 |
| 20260509082917 | 55 | 268 | 3.0 | 4.0 | 0.12 | 0.39 | 0.39 | 98 | 1004.7 |
| 20260509082415 | 55 | 243 | 3.0 | 3.0 | 0.12 | 0.38 | 0.38 | 98 | 1004.6 |
| 20260509081911 | 55 | 273 | 4.0 | 6.0 | 0.12 | 0.37 | 0.37 | 98 | 1004.5 |
| 20260509081409 | 55 | 254 | 3.0 | 3.0 | 0.12 | 0.36 | 0.36 | 98 | 1004.4 |
| 20260509080906 | 55 | 220 | 4.0 | 6.0 | 0.12 | 0.35 | 0.35 | 98 | 1004.5 |
| 20260509080404 | 55 | 291 | 2.0 | 3.0 | 0.07 | 0.34 | 0.34 | 98 | 1004.5 |
| 20260509075902 | 55 | 259 | 4.0 | 4.0 | 0.00 | 0.33 | 0.33 | 98 | 1004.4 |
| 20260509075358 | 55 | 253 | 4.0 | 6.0 | 0.07 | 0.33 | 0.33 | 98 | 1004.4 |
| 20260509074856 | 55 | 240 | 3.0 | 3.0 | 0.07 | 0.33 | 0.33 | 98 | 1004.5 |
| 20260509074354 | 55 | 245 | 3.0 | 3.0 | 0.00 | 0.32 | 0.32 | 98 | 1004.7 |
| 20260509073849 | 55 | 228 | 3.0 | 4.0 | 0.00 | 0.32 | 0.32 | 98 | 1004.6 |
| 20260509073346 | 55 | 233 | 2.0 | 2.0 | 0.00 | 0.32 | 0.32 | 98 | 1004.6 |
| 20260509072843 | 55 | 292 | 2.0 | 2.0 | 0.00 | 0.32 | 0.32 | 97 | 1004.6 |
| 20260509072339 | 55 | 310 | 2.0 | 2.0 | 0.00 | 0.32 | 0.32 | 97 | 1004.4 |
| 20260509071836 | 55 | 209 | 2.0 | 3.0 | 0.00 | 0.32 | 0.32 | 97 | 1004.3 |
| 20260509071333 | 55 | 245 | 1.0 | 2.0 | 0.05 | 0.32 | 0.32 | 97 | 1004.5 |
| 20260509070830 | 55 | 248 | 3.0 | 3.0 | 0.05 | 0.32 | 0.32 | 97 | 1004.7 |
| 20260509070327 | 55 | 245 | 2.0 | 2.0 | 0.00 | 0.31 | 0.31 | 97 | 1004.9 |
| 20260509065823 | 55 | 229 | 3.0 | 4.0 | 0.00 | 0.31 | 0.31 | 97 | 1004.8 |
| 20260509065319 | 55 | 237 | 3.0 | 3.0 | 0.00 | 0.31 | 0.31 | 97 | 1004.9 |
| 20260509064815 | 55 | 275 | 2.0 | 2.0 | 0.00 | 0.31 | 0.31 | 97 | 1005.0 |
| 20260509064313 | 55 | 238 | 4.0 | 4.0 | 0.00 | 0.31 | 0.31 | 97 | 1005.1 |
| 20260509063811 | 55 | 293 | 1.0 | 2.0 | 0.00 | 0.31 | 0.31 | 97 | 1005.3 |
| 20260509063307 | 55 | 222 | 2.0 | 3.0 | 0.00 | 0.31 | 0.31 | 97 | 1005.2 |
| 20260509062804 | 55 | 233 | 2.0 | 2.0 | 0.00 | 0.31 | 0.31 | 97 | 1005.3 |
| 20260509062301 | 55 | 248 | 2.0 | 2.0 | 0.00 | 0.31 | 0.31 | 97 | 1005.5 |
| 20260509061758 | 55 | 245 | 2.0 | 2.0 | 0.00 | 0.31 | 0.31 | 97 | 1005.3 |
| 20260509061256 | 55 | 235 | 2.0 | 2.0 | 0.00 | 0.31 | 0.31 | 97 | 1005.1 |
| 20260509060753 | 55 | 242 | 3.0 | 3.0 | 0.00 | 0.31 | 0.31 | 97 | 1005.3 |
| 20260509060250 | 55 | 237 | 4.0 | 4.0 | 0.00 | 0.31 | 0.31 | 97 | 1005.4 |
| 20260509055745 | 55 | 315 | 1.0 | 1.0 | 0.00 | 0.31 | 0.31 | 97 | 1005.6 |
| 20260509055241 | 55 | 280 | 2.0 | 3.0 | 0.19 | 0.31 | 0.31 | 97 | 1005.5 |
| 20260509054738 | 55 | 222 | 1.0 | 2.0 | 0.31 | 0.31 | 0.31 | 97 | 1005.7 |
| 20260509054235 | 55 | 252 | 5.0 | 7.0 | 0.24 | 0.30 | 0.30 | 97 | 1005.7 |
| 20260509053733 | 55 | 245 | 4.0 | 4.0 | 0.12 | 0.26 | 0.26 | 97 | 1005.8 |
| 20260509053230 | 55 | 243 | 3.0 | 3.0 | 0.17 | 0.26 | 0.26 | 97 | 1005.9 |
| 20260509052728 | 55 | 209 | 2.0 | 2.0 | 0.17 | 0.24 | 0.24 | 97 | 1006.0 |
| 20260509052225 | 55 | 222 | 3.0 | 3.0 | 0.26 | 0.23 | 0.23 | 97 | 1006.2 |
| 20260509051723 | 55 | 238 | 4.0 | 6.0 | 0.26 | 0.21 | 0.21 | 97 | 1006.0 |
| 20260509051220 | 55 | 262 | 2.0 | 3.0 | 0.24 | 0.19 | 0.19 | 97 | 1006.3 |
| 20260509050717 | 55 | 229 | 3.0 | 3.0 | 0.17 | 0.17 | 0.17 | 97 | 1006.3 |
| 20260509050213 | 55 | 209 | 2.0 | 2.0 | 0.24 | 0.16 | 0.16 | 97 | 1006.3 |
| 20260509045711 | 55 | 265 | 2.0 | 2.0 | 0.19 | 0.14 | 0.14 | 97 | 1006.3 |
| 20260509045208 | 55 | 227 | 1.0 | 1.0 | 0.12 | 0.12 | 0.12 | 97 | 1006.2 |
| 20260509044705 | 55 | 314 | 0.0 | 0.0 | 0.12 | 0.11 | 0.11 | 97 | 1006.1 |
| 20260509044203 | 55 | 305 | 0.0 | 0.0 | 0.19 | 0.10 | 0.10 | 97 | 1006.3 |
| 20260509043659 | 55 | 229 | 2.0 | 2.0 | 0.19 | 0.09 | 0.09 | 97 | 1006.2 |
| 20260509043155 | 55 | 251 | 2.0 | 2.0 | 0.19 | 0.07 | 0.07 | 97 | 1006.4 |
| 20260509042651 | 55 | 264 | 2.0 | 2.0 | 0.24 | 0.06 | 0.06 | 97 | 1006.2 |
| 20260509042147 | 55 | 198 | 2.0 | 2.0 | 0.17 | 0.04 | 0.04 | 97 | 1006.0 |
| 20260509041644 | 55 | 216 | 2.0 | 3.0 | 0.05 | 0.02 | 0.02 | 97 | 1006.1 |
| 20260509041141 | 55 | 290 | 2.0 | 3.0 | 0.07 | 0.01 | 0.01 | 97 | 1006.1 |
| 20260509040640 | 55 | 241 | 1.0 | 2.0 | 0.12 | 0.01 | 0.01 | 97 | 1006.0 |
| 20260509040136 | 55 | 237 | 3.0 | 4.0 | 0.05 | 0.00 | 0.00 | 97 | 1005.9 |
| 20260509035633 | 55 | 213 | 3.0 | 3.0 | 0.07 | 0.44 | 0.44 | 97 | 1006.1 |
| 20260509035130 | 55 | 173 | 3.0 | 4.0 | 0.07 | 0.44 | 0.44 | 97 | 1006.0 |
| 20260509034628 | 55 | 281 | 2.0 | 2.0 | 0.00 | 0.43 | 0.43 | 97 | 1006.1 |
| 20260509034125 | 55 | 224 | 4.0 | 6.0 | 0.00 | 0.43 | 0.43 | 97 | 1006.0 |
| 20260509033621 | 55 | 162 | 2.0 | 2.0 | 0.00 | 0.43 | 0.43 | 97 | 1006.1 |
| 20260509033118 | 55 | 200 | 2.0 | 2.0 | 0.05 | 0.43 | 0.43 | 97 | 1006.1 |
| 20260509032616 | 55 | 273 | 2.0 | 2.0 | 0.05 | 0.43 | 0.43 | 97 | 1006.2 |
| 20260509032112 | 55 | 240 | 2.0 | 2.0 | 0.07 | 0.42 | 0.42 | 97 | 1006.2 |
| 20260509031610 | 55 | 263 | 1.0 | 1.0 | 0.12 | 0.42 | 0.42 | 97 | 1006.4 |
| 20260509031108 | 55 | 213 | 1.0 | 1.0 | 0.05 | 0.41 | 0.41 | 97 | 1006.2 |
| 20260509030606 | 55 | 293 | 1.0 | 1.0 | 0.05 | 0.41 | 0.41 | 96 | 1006.3 |
| 20260509025558 | 55 | 253 | 1.0 | 2.0 | 0.00 | 0.40 | 0.40 | 96 | 1006.2 |
| 20260509025054 | 55 | 220 | 2.0 | 3.0 | 0.00 | 0.40 | 0.40 | 96 | 1006.2 |
| 20260509024550 | 55 | 221 | 0.0 | 0.0 | 0.00 | 0.40 | 0.40 | 96 | 1006.4 |
| 20260509024046 | 55 | 190 | 2.0 | 2.0 | 0.00 | 0.40 | 0.40 | 96 | 1006.5 |
| 20260509023544 | 55 | 270 | 1.0 | 1.0 | 0.00 | 0.40 | 0.40 | 96 | 1006.3 |
| 20260509023041 | 55 | 272 | 1.0 | 1.0 | 0.00 | 0.40 | 0.40 | 96 | 1006.4 |
| 20260509022537 | 55 | 286 | 0.0 | 1.0 | 0.00 | 0.40 | 0.40 | 96 | 1006.4 |
| 20260509022035 | 55 | 291 | 0.0 | 0.0 | 0.00 | 0.40 | 0.40 | 96 | 1006.3 |
| 20260509021532 | 55 | 309 | 0.0 | 0.0 | 0.07 | 0.40 | 0.40 | 96 | 1006.3 |
| 20260509021029 | 55 | 243 | 0.0 | 1.0 | 0.14 | 0.40 | 0.40 | 96 | 1006.4 |
| 20260509020527 | 55 | 173 | 2.0 | 2.0 | 0.07 | 0.39 | 0.39 | 96 | 1006.3 |
| 20260509020024 | 55 | 311 | 0.0 | 0.0 | 0.12 | 0.39 | 0.39 | 96 | 1006.5 |
| 20260509015523 | 55 | 270 | 1.0 | 1.0 | 0.12 | 0.38 | 0.38 | 96 | 1006.5 |
| 20260509015020 | 55 | 234 | 2.0 | 2.0 | 0.19 | 0.37 | 0.37 | 96 | 1006.6 |
| 20260509014516 | 55 | 285 | 2.0 | 2.0 | 0.24 | 0.36 | 0.36 | 95 | 1006.4 |
| 20260509014012 | 55 | 206 | 2.0 | 3.0 | 0.17 | 0.34 | 0.34 | 95 | 1006.5 |
| 20260509013509 | 55 | 269 | 0.0 | 1.0 | 0.12 | 0.32 | 0.32 | 95 | 1006.5 |
| 20260509013005 | 55 | 264 | 2.0 | 2.0 | 0.07 | 0.31 | 0.31 | 95 | 1006.4 |
| 20260509012502 | 55 | 253 | 0.0 | 0.0 | 0.05 | 0.30 | 0.30 | 95 | 1006.3 |
| 20260509011959 | 55 | 278 | 2.0 | 2.0 | 0.05 | 0.30 | 0.30 | 95 | 1006.3 |
| 20260509011457 | 55 | 269 | 1.0 | 2.0 | 0.07 | 0.29 | 0.29 | 95 | 1006.3 |
| 20260509010954 | 55 | 174 | 1.0 | 1.0 | 0.07 | 0.29 | 0.29 | 95 | 1006.1 |
| 20260509010452 | 55 | 291 | 0.0 | 1.0 | 0.00 | 0.28 | 0.28 | 95 | 1006.3 |
| 20260509005948 | 55 | 272 | 2.0 | 2.0 | 0.00 | 0.28 | 0.28 | 95 | 1006.1 |
| 20260509005446 | 55 | 244 | 3.0 | 3.0 | 0.07 | 0.28 | 0.28 | 95 | 1006.2 |
| 20260509004946 | 55 | 269 | 4.0 | 6.0 | 0.07 | 0.28 | 0.28 | 95 | 1006.3 |
| 20260509004443 | 55 | 254 | 2.0 | 3.0 | 0.05 | 0.27 | 0.27 | 95 | 1006.4 |
| 20260509003941 | 55 | 222 | 1.0 | 2.0 | 0.12 | 0.27 | 0.27 | 95 | 1006.4 |
| 20260509003438 | 55 | 208 | 3.0 | 3.0 | 0.07 | 0.26 | 0.26 | 95 | 1006.3 |
| 20260509002935 | 56 | 312 | 1.0 | 1.0 | 0.07 | 0.26 | 0.26 | 95 | 1006.3 |
| 20260509002433 | 55 | 252 | 2.0 | 2.0 | 0.00 | 0.25 | 0.25 | 94 | 1006.4 |
| 20260509001930 | 56 | 283 | 0.0 | 0.0 | 0.00 | 0.25 | 0.25 | 94 | 1005.8 |
| 20260509001426 | 56 | 254 | 0.0 | 1.0 | 0.00 | 0.25 | 0.25 | 94 | 1006.0 |
| 20260509000923 | 55 | 262 | 2.0 | 2.0 | 0.00 | 0.25 | 0.25 | 94 | 1006.3 |
| 20260509000421 | 55 | 266 | 2.0 | 2.0 | 0.05 | 0.25 | 0.25 | 94 | 1006.3 |
| 20260508235917 | 56 | 268 | 1.0 | 2.0 | 0.12 | 0.25 | 0.25 | 94 | 1006.0 |
| 20260508235415 | 56 | 301 | 2.0 | 2.0 | 0.12 | 0.24 | 0.24 | 94 | 1006.4 |
| 20260508234911 | 56 | 316 | 1.0 | 1.0 | 0.12 | 0.23 | 0.23 | 94 | 1006.5 |
| 20260508234408 | 56 | 299 | 1.0 | 1.0 | 0.12 | 0.22 | 0.22 | 94 | 1006.5 |
| 20260508233906 | 55 | 323 | 1.0 | 1.0 | 0.12 | 0.21 | 0.21 | 94 | 1006.6 |
| 20260508233406 | 55 | 272 | 3.0 | 3.0 | 0.17 | 0.21 | 0.21 | 93 | 1006.6 |
| 20260508232902 | 56 | 328 | 0.0 | 0.0 | 0.12 | 0.19 | 0.19 | 93 | 1006.6 |
| 20260508232358 | 56 | 306 | 1.0 | 2.0 | 0.12 | 0.18 | 0.18 | 93 | 1006.6 |
| 20260508231856 | 56 | 349 | 1.0 | 1.0 | 0.12 | 0.17 | 0.17 | 93 | 1006.6 |
| 20260508231353 | 56 | 15 | 0.0 | 0.0 | 0.07 | 0.16 | 0.16 | 93 | 1006.4 |
| 20260508230849 | 56 | 40 | 0.0 | 0.0 | 0.07 | 0.15 | 0.15 | 93 | 1006.4 |
| 20260508230346 | 56 | 20 | 3.0 | 3.0 | 0.12 | 0.15 | 0.15 | 93 | 1006.5 |
| 20260508225844 | 56 | 5 | 1.0 | 1.0 | 0.12 | 0.14 | 0.14 | 93 | 1006.7 |
| 20260508225340 | 56 | 19 | 1.0 | 1.0 | 0.12 | 0.13 | 0.13 | 92 | 1006.8 |
| 20260508224838 | 56 | 20 | 0.0 | 1.0 | 0.17 | 0.12 | 0.12 | 92 | 1006.6 |
| 20260508224335 | 56 | 8 | 1.0 | 1.0 | 0.19 | 0.11 | 0.11 | 92 | 1006.8 |
| 20260508223833 | 56 | 4 | 1.0 | 2.0 | 0.17 | 0.10 | 0.10 | 92 | 1006.7 |
| 20260508223330 | 56 | 19 | 0.0 | 1.0 | 0.05 | 0.08 | 0.08 | 92 | 1006.5 |
| 20260508222827 | 57 | 14 | 2.0 | 2.0 | 0.07 | 0.07 | 0.07 | 91 | 1006.8 |
| 20260508222324 | 57 | 8 | 2.0 | 2.0 | 0.07 | 0.07 | 0.07 | 91 | 1006.5 |
| 20260508221821 | 57 | 29 | 0.0 | 1.0 | 0.00 | 0.06 | 0.06 | 90 | 1006.1 |
| 20260508221316 | 57 | 32 | 0.0 | 0.0 | 0.00 | 0.06 | 0.06 | 90 | 1006.2 |
| 20260508220813 | 57 | 11 | 1.0 | 1.0 | 0.00 | 0.06 | 0.06 | 89 | 1006.4 |
| 20260508220309 | 57 | 17 | 1.0 | 2.0 | 0.05 | 0.06 | 0.06 | 88 | 1006.3 |
| 20260508215806 | 57 | 0 | 1.0 | 1.0 | 0.12 | 0.06 | 0.06 | 87 | 1006.4 |
| 20260508215306 | 58 | 343 | 2.0 | 2.0 | 0.12 | 0.05 | 0.05 | 86 | 1006.4 |
| 20260508214800 | 58 | 335 | 2.0 | 3.0 | 0.12 | 0.04 | 0.04 | 85 | 1006.7 |
| 20260508214257 | 59 | 319 | 3.0 | 3.0 | 0.07 | 0.03 | 0.03 | 83 | 1006.6 |
| 20260508213753 | 59 | 322 | 3.0 | 3.0 | 0.07 | 0.02 | 0.02 | 80 | 1006.8 |
| 20260508213250 | 60 | 316 | 5.0 | 6.0 | 0.07 | 0.02 | 0.02 | 77 | 1006.6 |
| 20260508212747 | 60 | 299 | 4.0 | 6.0 | 0.00 | 0.01 | 0.01 | 75 | 1006.5 |
| 20260508212243 | 61 | 292 | 2.0 | 2.0 | 0.05 | 0.01 | 0.01 | 74 | 1006.2 |
| 20260508211739 | 61 | 305 | 3.0 | 4.0 | 0.05 | 0.01 | 0.01 | 70 | 1006.2 |
| 20260508211235 | 61 | 297 | 2.0 | 3.0 | 0.00 | 0.00 | 0.00 | 70 | 1006.2 |
| 20260508210732 | 61 | 326 | 1.0 | 2.0 | 0.00 | 0.00 | 0.00 | 71 | 1006.0 |
| 20260508210229 | 61 | 275 | 2.0 | 3.0 | 0.00 | 0.00 | 0.00 | 69 | 1006.0 |
| 20260508205726 | 61 | 252 | 2.0 | 2.0 | 0.00 | 0.00 | 0.00 | 69 | 1006.0 |
| 20260508205222 | 61 | 235 | 1.0 | 2.0 | 0.00 | 0.00 | 0.00 | 68 | 1006.1 |
| 20260508204718 | 62 | 266 | 4.0 | 4.0 | 0.00 | 0.00 | 0.00 | 65 | 1006.2 |
| 20260508204215 | 63 | 293 | 4.0 | 4.0 | 0.00 | 0.00 | 0.00 | 65 | 1006.0 |
| 20260508203711 | 64 | 240 | 11.0 | 15.0 | 0.00 | 0.00 | 0.00 | 60 | 1006.2 |
| 20260508203208 | 65 | 285 | 6.0 | 7.0 | 0.00 | 0.00 | 0.00 | 57 | 1006.2 |
| 20260508202704 | 65 | 253 | 4.0 | 4.0 | 0.00 | 0.00 | 0.00 | 55 | 1006.1 |
| 20260508202201 | 65 | 291 | 5.0 | 7.0 | 0.00 | 0.00 | 0.00 | 54 | 1006.0 |
| 20260508201658 | 65 | 195 | 5.0 | 6.0 | 0.00 | 0.00 | 0.00 | 54 | 1006.1 |
| 20260508201154 | 66 | 234 | 5.0 | 6.0 | 0.00 | 0.00 | 0.00 | 54 | 1006.1 |
| 20260508200651 | 66 | 253 | 3.0 | 3.0 | 0.00 | 0.00 | 0.00 | 54 | 1006.3 |
| 20260508200147 | 66 | 172 | 9.0 | 11.0 | 0.00 | 0.00 | 0.00 | 52 | 1006.2 |
| 20260508195644 | 66 | 227 | 4.0 | 4.0 | 0.00 | 0.00 | 0.00 | 52 | 1006.2 |
| 20260508195141 | 66 | 286 | 4.0 | 6.0 | 0.00 | 0.00 | 0.00 | 53 | 1006.3 |
| 20260508194637 | 66 | 289 | 2.0 | 3.0 | 0.00 | 0.00 | 0.00 | 52 | 1006.2 |
| 20260508194134 | 66 | 217 | 4.0 | 7.0 | 0.00 | 0.00 | 0.00 | 53 | 1006.1 |
| 20260508193631 | 66 | 224 | 4.0 | 6.0 | 0.00 | 0.00 | 0.00 | 52 | 1006.6 |
| 20260508193128 | 66 | 169 | 4.0 | 4.0 | 0.00 | 0.00 | 0.00 | 53 | 1006.6 |
| 20260508192624 | 66 | 206 | 4.0 | 6.0 | 0.00 | 0.00 | 0.00 | 54 | 1006.9 |
| 20260508192122 | 66 | 288 | 3.0 | 3.0 | 0.00 | 0.00 | 0.00 | 52 | 1006.9 |
| 20260508191618 | 66 | 262 | 2.0 | 3.0 | 0.00 | 0.00 | 0.00 | 53 | 1006.8 |
| 20260508191115 | 65 | 276 | 4.0 | 6.0 | 0.00 | 0.00 | 0.00 | 52 | 1006.8 |
| 20260508190613 | 65 | 317 | 3.0 | 4.0 | 0.00 | 0.00 | 0.00 | 51 | 1006.9 |
| 20260508190109 | 65 | 195 | 5.0 | 6.0 | 0.00 | 0.00 | 0.00 | 52 | 1007.0 |
| 20260508185606 | 65 | 218 | 4.0 | 6.0 | 0.00 | 0.00 | 0.00 | 55 | 1006.9 |
| 20260508185103 | 65 | 253 | 6.0 | 7.0 | 0.00 | 0.00 | 0.00 | 54 | 1007.0 |
| 20260508184601 | 65 | 275 | 4.0 | 6.0 | 0.00 | 0.00 | 0.00 | 56 | 1007.2 |
| 20260508184057 | 65 | 203 | 3.0 | 3.0 | 0.00 | 0.00 | 0.00 | 56 | 1007.2 |
| 20260508183554 | 65 | 159 | 4.0 | 7.0 | 0.00 | 0.00 | 0.00 | 56 | 1007.2 |
| 20260508183050 | 66 | 204 | 6.0 | 8.0 | 0.00 | 0.00 | 0.00 | 54 | 1007.4 |
| 20260508182546 | 66 | 241 | 7.0 | 9.0 | 0.00 | 0.00 | 0.00 | 54 | 1007.4 |
| 20260508182043 | 66 | 219 | 4.0 | 6.0 | 0.00 | 0.00 | 0.00 | 55 | 1007.5 |
| 20260508181538 | 66 | 227 | 8.0 | 10.0 | 0.00 | 0.00 | 0.00 | 53 | 1007.5 |
| 20260508181036 | 65 | 190 | 5.0 | 8.0 | 0.00 | 0.00 | 0.00 | 56 | 1007.4 |
| 20260508180532 | 64 | 289 | 6.0 | 7.0 | 0.00 | 0.00 | 0.00 | 56 | 1007.6 |
| 20260508180029 | 64 | 242 | 4.0 | 4.0 | 0.00 | 0.00 | 0.00 | 56 | 1007.8 |
| 20260508175525 | 64 | 229 | 8.0 | 9.0 | 0.00 | 0.00 | 0.00 | 55 | 1007.8 |
| 20260508175023 | 64 | 206 | 2.0 | 3.0 | 0.00 | 0.00 | 0.00 | 56 | 1008.1 |
| 20260508174520 | 65 | 232 | 6.0 | 8.0 | 0.00 | 0.00 | 0.00 | 54 | 1007.7 |
| 20260508174017 | 65 | 221 | 9.0 | 13.0 | 0.00 | 0.00 | 0.00 | 54 | 1007.9 |
| 20260508173514 | 65 | 242 | 6.0 | 8.0 | 0.00 | 0.00 | 0.00 | 55 | 1008.0 |
| 20260508173010 | 66 | 200 | 8.0 | 11.0 | 0.00 | 0.00 | 0.00 | 54 | 1008.2 |
| 20260508172507 | 66 | 227 | 7.0 | 9.0 | 0.00 | 0.00 | 0.00 | 55 | 1008.4 |
| 20260508172004 | 64 | 277 | 6.0 | 8.0 | 0.00 | 0.00 | 0.00 | 57 | 1008.2 |
| 20260508171500 | 63 | 210 | 5.0 | 6.0 | 0.00 | 0.00 | 0.00 | 59 | 1008.4 |
| 20260508170956 | 63 | 215 | 7.0 | 10.0 | 0.00 | 0.00 | 0.00 | 59 | 1008.4 |
| 20260508170454 | 63 | 253 | 4.0 | 7.0 | 0.00 | 0.00 | 0.00 | 58 | 1008.7 |
| 20260508165951 | 63 | 227 | 6.0 | 7.0 | 0.00 | 0.00 | 0.00 | 58 | 1008.7 |
| 20260508165449 | 63 | 251 | 5.0 | 7.0 | 0.00 | 0.00 | 0.00 | 58 | 1008.8 |
| 20260508164944 | 64 | 235 | 5.0 | 6.0 | 0.00 | 0.00 | 0.00 | 56 | 1009.0 |
| 20260508164442 | 64 | 201 | 7.0 | 9.0 | 0.00 | 0.00 | 0.00 | 57 | 1008.8 |
| 20260508163939 | 63 | 251 | 4.0 | 4.0 | 0.00 | 0.00 | 0.00 | 57 | 1009.0 |
| 20260508163437 | 62 | 182 | 8.0 | 9.0 | 0.00 | 0.00 | 0.00 | 57 | 1009.1 |
| 20260508162932 | 62 | 257 | 4.0 | 6.0 | 0.00 | 0.00 | 0.00 | 60 | 1009.1 |
| 20260508162430 | 62 | 246 | 5.0 | 8.0 | 0.00 | 0.00 | 0.00 | 60 | 1009.5 |
| 20260508161926 | 61 | 254 | 7.0 | 10.0 | 0.00 | 0.00 | 0.00 | 58 | 1009.5 |
| 20260508161423 | 61 | 144 | 7.0 | 9.0 | 0.00 | 0.00 | 0.00 | 59 | 1009.5 |
| 20260508160921 | 61 | 219 | 7.0 | 9.0 | 0.00 | 0.00 | 0.00 | 57 | 1009.6 |
| 20260508160420 | 62 | 263 | 6.0 | 10.0 | 0.00 | 0.00 | 0.00 | 57 | 1009.6 |
| 20260508155915 | 62 | 239 | 5.0 | 8.0 | 0.00 | 0.00 | 0.00 | 60 | 1009.5 |
| 20260508155413 | 61 | 274 | 4.0 | 8.0 | 0.00 | 0.00 | 0.00 | 59 | 1009.5 |
| 20260508154909 | 61 | 188 | 6.0 | 9.0 | 0.00 | 0.00 | 0.00 | 58 | 1009.7 |
| 20260508154407 | 62 | 235 | 5.0 | 6.0 | 0.00 | 0.00 | 0.00 | 57 | 1009.5 |
| 20260508153903 | 63 | 291 | 6.0 | 8.0 | 0.00 | 0.00 | 0.00 | 56 | 1009.7 |
| 20260508153401 | 63 | 215 | 5.0 | 8.0 | 0.00 | 0.00 | 0.00 | 56 | 1009.6 |
| 20260508152856 | 64 | 246 | 6.0 | 7.0 | 0.00 | 0.00 | 0.00 | 55 | 1009.5 |
| 20260508152353 | 64 | 271 | 6.0 | 7.0 | 0.00 | 0.00 | 0.00 | 54 | 1009.4 |
| 20260508151849 | 64 | 237 | 3.0 | 4.0 | 0.00 | 0.00 | 0.00 | 58 | 1009.5 |
| 20260508151347 | 64 | 230 | 4.0 | 4.0 | 0.00 | 0.00 | 0.00 | 59 | 1009.4 |
| 20260508150843 | 63 | 283 | 5.0 | 6.0 | 0.00 | 0.00 | 0.00 | 59 | 1009.5 |
| 20260508150340 | 63 | 261 | 6.0 | 7.0 | 0.00 | 0.00 | 0.00 | 57 | 1009.6 |
| 20260508145836 | 63 | 250 | 9.0 | 11.0 | 0.00 | 0.00 | 0.00 | 56 | 1009.5 |
| 20260508145332 | 62 | 248 | 5.0 | 6.0 | 0.00 | 0.00 | 0.00 | 58 | 1009.6 |
| 20260508144829 | 63 | 244 | 7.0 | 10.0 | 0.00 | 0.00 | 0.00 | 56 | 1009.6 |
| 20260508144327 | 63 | 265 | 7.0 | 10.0 | 0.00 | 0.00 | 0.00 | 55 | 1009.7 |
| 20260508143824 | 62 | 253 | 6.0 | 9.0 | 0.00 | 0.00 | 0.00 | 56 | 1009.8 |
| 20260508143321 | 62 | 294 | 3.0 | 4.0 | 0.00 | 0.00 | 0.00 | 59 | 1010.0 |
| 20260508142818 | 62 | 270 | 7.0 | 8.0 | 0.00 | 0.00 | 0.00 | 56 | 1010.1 |
| 20260508142315 | 62 | 277 | 8.0 | 9.0 | 0.00 | 0.00 | 0.00 | 56 | 1010.0 |
| 20260508141811 | 62 | 210 | 4.0 | 4.0 | 0.00 | 0.00 | 0.00 | 57 | 1010.2 |
| 20260508141308 | 61 | 216 | 4.0 | 6.0 | 0.00 | 0.00 | 0.00 | 59 | 1010.1 |
| 20260508140806 | 60 | 247 | 6.0 | 8.0 | 0.00 | 0.00 | 0.00 | 59 | 1010.3 |
| 20260508140303 | 60 | 248 | 6.0 | 7.0 | 0.00 | 0.00 | 0.00 | 57 | 1010.2 |
| 20260508135758 | 60 | 230 | 9.0 | 11.0 | 0.00 | 0.00 | 0.00 | 57 | 1010.3 |
| 20260508135255 | 60 | 254 | 7.0 | 10.0 | 0.00 | 0.00 | 0.00 | 56 | 1010.1 |
| 20260508134750 | 59 | 238 | 6.0 | 8.0 | 0.00 | 0.00 | 0.00 | 58 | 1010.1 |
| 20260508134248 | 59 | 202 | 2.0 | 3.0 | 0.00 | 0.00 | 0.00 | 61 | 1010.1 |
| 20260508133744 | 58 | 254 | 6.0 | 7.0 | 0.00 | 0.00 | 0.00 | 57 | 1010.2 |
| 20260508133242 | 58 | 243 | 6.0 | 9.0 | 0.00 | 0.00 | 0.00 | 60 | 1010.1 |
| 20260508132740 | 57 | 203 | 5.0 | 7.0 | 0.00 | 0.00 | 0.00 | 58 | 1010.3 |
| 20260508132237 | 57 | 231 | 7.0 | 10.0 | 0.00 | 0.00 | 0.00 | 59 | 1010.5 |
| 20260508131732 | 58 | 263 | 6.0 | 9.0 | 0.00 | 0.00 | 0.00 | 57 | 1010.4 |
| 20260508131229 | 57 | 216 | 5.0 | 7.0 | 0.00 | 0.00 | 0.00 | 60 | 1010.5 |
| 20260508130725 | 56 | 239 | 6.0 | 8.0 | 0.00 | 0.00 | 0.00 | 61 | 1010.4 |
| 20260508130223 | 56 | 249 | 7.0 | 8.0 | 0.00 | 0.00 | 0.00 | 59 | 1010.4 |
| 20260508125718 | 55 | 238 | 4.0 | 6.0 | 0.00 | 0.00 | 0.00 | 61 | 1010.4 |
| 20260508125215 | 55 | 254 | 6.0 | 8.0 | 0.00 | 0.00 | 0.00 | 62 | 1010.5 |
| 20260508124713 | 54 | 249 | 4.0 | 6.0 | 0.00 | 0.00 | 0.00 | 63 | 1010.4 |
| 20260508124210 | 54 | 241 | 4.0 | 4.0 | 0.00 | 0.00 | 0.00 | 62 | 1010.6 |
| 20260508123708 | 54 | 185 | 4.0 | 4.0 | 0.00 | 0.00 | 0.00 | 62 | 1010.5 |
| 20260508123206 | 53 | 266 | 6.0 | 7.0 | 0.00 | 0.00 | 0.00 | 61 | 1010.4 |
| 20260508122702 | 53 | 230 | 8.0 | 11.0 | 0.00 | 0.00 | 0.00 | 62 | 1010.3 |
| 20260508122159 | 53 | 210 | 4.0 | 7.0 | 0.00 | 0.00 | 0.00 | 62 | 1010.2 |
| 20260508121657 | 53 | 192 | 4.0 | 6.0 | 0.00 | 0.00 | 0.00 | 63 | 1010.2 |
| 20260508121155 | 52 | 251 | 3.0 | 4.0 | 0.00 | 0.00 | 0.00 | 64 | 1010.1 |
| 20260508120652 | 51 | 214 | 4.0 | 6.0 | 0.00 | 0.00 | 0.00 | 64 | 1010.2 |
| 20260508120150 | 51 | 196 | 4.0 | 4.0 | 0.00 | 0.00 | 0.00 | 66 | 1010.4 |
| 20260508115648 | 50 | 238 | 5.0 | 6.0 | 0.00 | 0.00 | 0.00 | 66 | 1010.3 |
| 20260508115144 | 50 | 205 | 5.0 | 6.0 | 0.00 | 0.00 | 0.00 | 67 | 1010.3 |
| 20260508114641 | 50 | 278 | 3.0 | 3.0 | 0.00 | 0.00 | 0.00 | 66 | 1010.2 |
| 20260508114137 | 50 | 269 | 6.0 | 8.0 | 0.00 | 0.00 | 0.00 | 67 | 1010.4 |
| 20260508113634 | 49 | 241 | 4.0 | 6.0 | 0.00 | 0.00 | 0.00 | 68 | 1010.1 |
| 20260508113133 | 49 | 240 | 5.0 | 7.0 | 0.00 | 0.00 | 0.00 | 68 | 1010.1 |
| 20260508112628 | 48 | 222 | 3.0 | 4.0 | 0.00 | 0.00 | 0.00 | 68 | 1010.1 |
| 20260508112126 | 48 | 227 | 2.0 | 3.0 | 0.00 | 0.00 | 0.00 | 69 | 1010.0 |
| 20260508111622 | 48 | 259 | 3.0 | 3.0 | 0.00 | 0.00 | 0.00 | 69 | 1010.1 |
| 20260508111120 | 48 | 225 | 2.0 | 2.0 | 0.00 | 0.00 | 0.00 | 69 | 1010.0 |
| 20260508110618 | 48 | 273 | 1.0 | 1.0 | 0.00 | 0.00 | 0.00 | 69 | 1010.1 |
| 20260508110114 | 48 | 256 | 1.0 | 2.0 | 0.00 | 0.00 | 0.00 | 70 | 1009.9 |
| 20260508105614 | 47 | 290 | 1.0 | 1.0 | 0.00 | 0.00 | 0.00 | 70 | 1009.8 |
| 20260508105111 | 48 | 309 | 1.0 | 1.0 | 0.00 | 0.00 | 0.00 | 69 | 1009.9 |
| 20260508104609 | 48 | 275 | 2.0 | 2.0 | 0.00 | 0.00 | 0.00 | 69 | 1009.9 |
| 20260508104105 | 48 | 253 | 1.0 | 2.0 | 0.00 | 0.00 | 0.00 | 68 | 1009.9 |
| 20260508103603 | 48 | 263 | 2.0 | 2.0 | 0.00 | 0.00 | 0.00 | 67 | 1009.9 |
| 20260508103100 | 48 | 263 | 1.0 | 2.0 | 0.00 | 0.00 | 0.00 | 67 | 1010.1 |
| 20260508102557 | 48 | 259 | 4.0 | 4.0 | 0.00 | 0.00 | 0.00 | 67 | 1010.0 |
| 20260508102055 | 48 | 266 | 3.0 | 3.0 | 0.00 | 0.00 | 0.00 | 67 | 1009.9 |
| 20260508101552 | 48 | 215 | 1.0 | 2.0 | 0.00 | 0.00 | 0.00 | 67 | 1009.9 |